Regional Weather Roundup
Issued by NWS

Home | Current Version | Previous Version | Graphics & Text | Print | Product List | Glossary On
Versions: 1 2 3 4 5 6 7 8 9 10 11 12 13 14 15 16 17 18 19 20 21 22 23 24 25 26 27 28 29 30 31 32 33 34 35 36 37 38 39 40 41 42 43 44 45 46 47 48
000
ASUS45 KCYS 220710
RWRWY

WYOMING REGIONAL WEATHER ROUNDUP
NATIONAL WEATHER SERVICE CHEYENNE WY
1200 AM MST MON DEC 22 2014

NOTE:  "FAIR" INDICATES FEW OR NO CLOUDS BELOW 12,000 FEET
WITH NO SIGNIFICANT WEATHER AND/OR OBSTRUCTIONS TO VISIBILITY.

WYZ001-220800-
YELLOWSTONE NATIONAL PARK

CITY           SKY/WX    TMP DP  RH WIND       PRES   REMARKS
LK YELLOWSTONE   N/A     23  18  81 VRB6      29.82S WCI  16
W YELLOWSTONE  NOT AVBL

$$
WYZ002>013-054>058-071-098>099-220800-
NORTHERN WYOMING

CITY           SKY/WX    TMP DP  RH WIND       PRES   REMARKS
JACKSON        MOCLDY    34  19  55 W7G25     29.87R WCI  28
CODY           FAIR      34  18  51 NW12G17   29.74R WCI  25
GREYBULL       CLOUDY    33  23  66 W8        29.73R WCI  26
WORLAND        FAIR      30  25  81 SW9       29.75R WCI  22
SHERIDAN       CLOUDY    37  26  64 NW8       29.67F WCI  31
BUFFALO        FAIR      30  26  85 N13G24    29.66R WCI  20
GILLETTE       FLURRIES  33  30  88 NW21G33   29.64S WCI  21
HULETT           N/A    N/A N/A N/A MISG        N/A
NEWCASTLE      LGT SNOW  32  32 100 NW22      29.59S WCI  19

$$
WYZ014>020-022>026-101>103-220800-
CENTRAL WYOMING

CITY           SKY/WX    TMP DP  RH WIND       PRES   REMARKS
BIG PINEY      FAIR      25  18  74 NW9       29.87R WCI  15
PINEDALE       FAIR      25  19  80 W10       29.85R WCI  15
DUBOIS         NOT AVBL
LANDER         FAIR      28  16  60 N8        29.77R WCI  20
RIVERTON       FAIR      33  19  56 NW21      29.75R WCI  21
CASPER         CLOUDY    31  24  75 W18       29.71R WCI  19
DOUGLAS        FAIR      32  28  85 NW12      29.67R WCI  23

$$
WYZ021-027>030-104>119-220800-
SOUTHERN WYOMING

CITY           SKY/WX    TMP DP  RH WIND       PRES   REMARKS
EVANSTON       CLOUDY    32  26  78 W15       29.97S WCI  22
KEMMERER       CLOUDY    30  28  93 W20       29.90S WCI  18
FORT BRIDGER   PTSUNNY   33  31  90 W25G36    29.93R WCI  20
ROCK SPRINGS   FAIR      30  25  81 W21G29    29.85R WCI  17
DIXON          FAIR      31  26  81 SW6       29.84S WCI  26
RAWLINS        FAIR      27  19  72 W10       29.75S WCI  17
SARATOGA       FAIR      27  23  86 NW6       29.75F WCI  20
LARAMIE        FAIR      25  16  68 NW21      29.67F WCI  11
CHEYENNE       LGT SNOW  31  25  78 NW23G43   29.66R WCI  18
TORRINGTON     FAIR     N/A N/A N/A W12       29.63R
PINE BLUFFS    FAIR      27  23  86 NW5       29.65R WCI  21

$$


USA.gov is the U.S. government's official web portal to all federal, state and local government web resources and services.